This demonstration page uses our WeatherBlox Daily Observations layout. Learn more.

Left ArrowRight Arrow

39.01783, -85.05884

Hourly Observations for December 6, 2017

Temp ( °F °C ) Dew Point ( °F °C ) Humidity (%) Winds ( mph kmh ) Pressure ( in mb ) Visibility ( mi km ) Precip ( " mm )
12:52 am 00:52 Clear 31 -0.6 22 -5.6 69 69 WSW 8 13 30.16 1021 10 16 0.00 0.00
1:52 am 01:52 Clear 30 -1.1 22 -5.6 72 72 SW 8 13 30.15 1021 10 16 0.00 0.00
2:52 am 02:52 Clear 29 -1.7 22 -5.6 75 75 SSW 8 13 30.16 1021 10 16 0.00 0.00
3:52 am 03:52 Clear 28 -2.2 22 -5.6 78 78 SSW 8 13 30.15 1021 10 16 0.00 0.00
4:52 am 04:52 Clear 28 -2.2 22 -5.6 78 78 SSW 8 13 30.14 1021 10 16 0.00 0.00
5:52 am 05:52 Clear 27 -2.8 23 -5 85 85 S 9 15 30.13 1020 10 16 0.00 0.00
6:52 am 06:52 Clear 26 -3.3 23 -5 88 88 S 9 15 30.12 1020 10 16 0.00 0.00
7:52 am 07:52 Mostly Sunny 27 -2.8 22 -5.6 81 81 S 10 17 30.12 1020 10 16 0.00 0.00
8:52 am 08:52 Sunny 29 -1.7 23 -5 78 78 S 13 20 30.11 1020 10 16 0.00 0.00
9:52 am 09:52 Sunny 33 0.6 24 -4.4 70 70 SSW 12 19 30.11 1020 10 16 0.00 0.00
10:52 am 10:52 Mostly Sunny 38 3.3 23 -5 55 55 SW 14 22 30.12 1020 10 16 0.00 0.00
11:52 am 11:52 Mostly Sunny 41 5 23 -5 49 49 WSW 17 28 30.09 1019 10 16 0.00 0.00
12:52 pm 12:52 Mostly Sunny 43 6.1 24 -4.4 47 47 SW 15 24 30.08 1019 10 16 0.00 0.00
1:52 pm 13:52 Mostly Sunny 44 6.7 26 -3.3 49 49 W 23 37 30.08 1019 10 16 0.00 0.00
2:52 pm 14:52 Mostly Sunny 44 6.7 26 -3.3 49 49 WSW 16 26 30.07 1018 10 16 0.00 0.00
3:52 pm 15:52 Mostly Sunny 44 6.7 25 -3.9 47 47 W 16 26 30.06 1018 10 16 0.00 0.00
4:52 pm 16:52 Mostly Sunny 42 5.6 25 -3.9 51 51 WSW 8 13 30.06 1018 10 16 0.00 0.00
5:52 pm 17:52 Clear 39 3.9 25 -3.9 57 57 SW 7 11 30.08 1019 10 16 0.00 0.00
6:52 pm 18:52 Clear 38 3.3 25 -3.9 60 60 WSW 7 11 30.11 1020 10 16 0.00 0.00
7:52 pm 19:52 Mostly Clear 37 2.8 24 -4.4 59 59 W 8 13 30.12 1020 10 16 0.00 0.00
8:52 pm 20:52 Mostly Cloudy 37 2.8 25 -3.9 62 62 WSW 6 9 30.13 1020 10 16 0.00 0.00
9:52 pm 21:52 Cloudy 38 3.3 26 -3.3 62 62 WNW 12 19 30.14 1021 10 16 0.00 0.00
10:52 pm 22:52 Mostly Clear 34 1.1 26 -3.3 73 73 SSW 5 7 30.13 1020 10 16 0.00 0.00
11:52 pm 23:52 Mostly Clear 33 0.6 26 -3.3 75 75 SSW 3 6 30.12 1020 10 16 0.00 0.00

Powered by AerisWeather